Regional Weather Roundup
Issued by NWS

Home | Current Version | Previous Version | Text Only | Print | Product List | Glossary On
Versions: 1 2 3 4 5 6 7 8 9 10 11 12 13 14 15 16 17 18 19 20 21 22 23 24 25 26 27 28 29 30 31 32 33 34 35 36 37 38 39 40 41 42 43 44 45 46 47 48 49 50
000
ASUS43 KLOT 300708
RWRIL

ILLINOIS REGIONAL WEATHER ROUNDUP
NATIONAL WEATHER SERVICE CHICAGO/ROMEOVILLE IL
200 AM CDT THU MAR 30 2017

NOTE: "FAIR" INDICATES FEW OR NO CLOUDS BELOW 12,000 FEET WITH NO
SIGNIFICANT WEATHER AND/OR OBSTRUCTIONS TO VISIBILITY.

* THESE STATIONS ARE NOT UNDER NWS QUALITY CONTROL. THEY ALSO MAY NOT
  REPORT WEATHER SUCH AS PRECIPITATION OR FOG.

ILZ001-002-007-009-015-016-024-300800-
NORTHWEST ILLINOIS

CITY           SKY/WX    TMP DP  RH WIND       PRES   REMARKS
MOLINE         LGT RAIN  44  41  89 E21G29    29.84F
STERLING*      LGT RAIN  43  41  93 E22       29.87S FOG
SAVANNA*       RAIN      42  40  91 E17       29.90F
$$

ILZ003-004-008-010-011-017-018-300800-
NORTH CENTRAL ILLINOIS

CITY           SKY/WX    TMP DP  RH WIND       PRES   REMARKS
ROCKFORD       RAIN      42  38  85 E16G24    29.92F FOG
FREEPORT*      LGT RAIN  40  38  93 NE15G24   29.95R
ROCHELLE*      RAIN      42  40  91 E15G26    29.91F
DE KALB*       CLOUDY    41  39  93 E17G25    29.92F
PERU*          RAIN      42  40  91 E18G25    29.87S
$$

ILZ005-006-012>014-019>023-300800-
NORTHEAST ILLINOIS

CITY           SKY/WX    TMP DP  RH WIND       PRES   REMARKS
CHICAGO-OHARE  LGT RAIN  43  38  82 E18G25    29.94F
CHICAGO-MIDWAY LGT RAIN  43  40  89 E15G25    29.94S FOG
AURORA         RAIN      44  39  82 E17G29    29.90F
LANSING*       CLOUDY    43  41  95 NE10      29.93F
JOLIET*        TSTM      44  42  93 NE12      29.92S
WAUKEGAN       LGT RAIN  39  37  92 E17G25    29.97F WCI  30
DUPAGE AIRPORT HVY RAIN  42  41  96 E18G24    29.93F FOG
KANKAKEE*      CLOUDY    45  40  83 E16       29.88F
WHEELING       CLOUDY    41  39  93 E16G23    29.97F
MORRIS*        TSTM      43  41  91 E15       29.89F
ROMEOVILLE*    TSTM      42  42  99 NE15      29.92S
NORTHERLY ISL    N/A     40  38  93 NE16        N/A
$$

LMZ740>746-300800-
SOUTHERN LAKE MICHIGAN

STATION/POSITION SKY/WX   TEMP    WIND        PRES    VSBY  WAVE
                          AIR SEA DIR/SP/G                  HT/PER
                          (F)     (DEG/KT/KT) (MB)    (MI)  (FT/S)
HARRISON CRIB              40      70/ 28/ 31   N/A
BURNHAM HARBOR             40      50/ 14/ 20   N/A
CALUMET HARBOR                     50/ 13/ 20   N/A
BURNS HARBOR               48      90/ 15     1014.2
MICHIGAN CITY              47      70/ 19/ 23   N/A
$$

ILZ025>027-034>036-040-047-049-050-058-095>099-300800-
WEST-CENTRAL ILLINOIS

CITY           SKY/WX    TMP DP  RH WIND       PRES   REMARKS
QUINCY         CLOUDY    53  50  89 E14       29.68F
GALESBURG*     CLOUDY    46  45  97 E13G21    29.75F
MACOMB*        CLOUDY    50  50  99 E17       29.78R
JACKSONVILLE*  CLOUDY    51  49  95 NE5       29.73R
PITTSFIELD*    RAIN      53  51  96 NE10      29.71F
$$

ILZ028>032-037-038-041>044-048-051>054-059>061-300800-
CENTRAL ILLINOIS

CITY           SKY/WX    TMP DP  RH WIND       PRES   REMARKS
PONTIAC        CLOUDY    44  44  99 NE20      29.86F
BLOOMINGTON    LGT RAIN  46  44  93 NE20      29.81F
DECATUR        CLOUDY    53  47  79 E10       29.76F
PEORIA         CLOUDY    46  44  93 E20G31    29.79F
LACON*         RAIN      44  43  97 E12G22    29.86R
LINCOLN*       CLOUDY    53  50  92 E8        29.77F
SPRINGFIELD    LGT RAIN  54  50  86 E12       29.75R
TAYLORVILLE    TSTM      55  52  88 SE8       29.75S
$$

ILZ033-039-045-046-055>057-062-063-300800-
EAST-CENTRAL ILLINOIS

CITY           SKY/WX    TMP DP  RH WIND       PRES   REMARKS
CHAMPAIGN      MOCLDY    53  45  74 E16       29.78F
RANTOUL*       CLOUDY    53  48  82 E13       29.80F
MATTOON        CLOUDY    55  49  80 SE16      29.77S
PARIS*         CLOUDY    55  48  77 E8        29.81S
$$

ILZ079-100>102-300800-
SOUTHWEST ILLINOIS

CITY           SKY/WX    TMP DP  RH WIND       PRES   REMARKS
ALTON          CLOUDY    57  55  91 SE3       29.70R
BELLEVILLE     CLOUDY    63  57  82 E14       29.65F THUNDER
CAHOKIA*       TSTM      61  56  83 VRB5      29.69R
SPARTA*        CLOUDY    63  55  77 SE13G20   29.69F
$$

ILZ064>066-069>071-074>076-080>082-084>086-088>090-092>094-300800-
SOUTH-CENTRAL ILLINOIS

CITY           SKY/WX    TMP DP  RH WIND       PRES   REMARKS
CARBONDALE     TSTM      64  60  87 S13G22    29.71F FOG
CAIRO*         CLOUDY    71  58  63 S13       29.72F
EFFINGHAM*     CLOUDY    57  52  82 E13       29.76F
MARION         CLOUDY    64  59  82 E9        29.73F
MT. VERNON     CLOUDY    61  54  77 SE8       29.74F
CENTRALIA*     MOCLDY    63  56  78 SE16G23   29.71F
SALEM*         CLOUDY    63  53  70 SE14G20   29.74F
METROPOLIS*    MOCLDY    71  57  61 SE8       29.74F
$$

ILZ067-068-072-073-078-083-087-091-300800-
SOUTHEAST ILLINOIS

CITY           SKY/WX    TMP DP  RH WIND       PRES   REMARKS
LAWRENCEVILLE  MOCLDY    58  50  75 SE10      29.80F
FLORA*         MOCLDY    60  53  76 SE13      29.76F
FAIRFIELD*     CLOUDY    61  54  77 SE6       29.75F
HARRISBURG*    CLOUDY    62  56  82 SE14      29.76F
ROBINSON*      CLOUDY    55  48  77 SE15      29.81F
CARMI*         CLOUDY    60  55  81 SE14      29.77F
$$

ABBREVIATIONS USED IN REMARKS
   TC - TEMPERATURE IN CELSIUS
  WCI - WIND CHILL INDEX
   HX - HEAT INDEX
  VSB - VISIBILITY
$$





USA.gov is the U.S. government's official web portal to all federal, state and local government web resources and services.